User: anonymous   Login
Location: Unspecified
(0.0000°N, 0.0000°E)
Time: 19:34:42
(UTC+00:00)
Language:

COSMOS 2439 - Orbit

View from above orbital plane
View from above orbital plane
View from above satellite
View from above satellite

Ground track
Ground track

The orbit data is extracted from the following two-line orbital elements,

1 32956U 08025D   21026.25833875  .00000033  00000-0  17070-3 0  9996
2 32956  82.5085 140.9769 0019892 290.2060  69.6888 12.43016161575309
Epoch (UTC): 26 January 2021 06:12:00
Eccentricity: 0.0019892
inclination: 82.5085°
perigee height: 1478 km
apogee height: 1509 km
right ascension of ascending node: 140.9769°
argument of perigee: 290.2060°
revolutions per day: 12.43016161
mean anomaly at epoch: 69.6888°
orbit number at epoch: 57530

The dashed part of the orbit path shows where the satellite is in the earth's shadow,  

DLR